This demonstration page uses our WeatherBlox Daily Observations layout. Learn more.

Left ArrowRight Arrow

Hourly Observations for January 29, 2021

Temp ( °F °C ) Dew Point ( °F °C ) Humidity (%) Winds ( mph kmh ) Pressure ( in mb ) Visibility ( mi km ) Precip ( " mm )
12:53 am 00:53 Mostly Cloudy 17 -8.3 13 -10.6 84 84 SW 9 15 29.87 1011 10 16 0.00 0.00
1:53 am 01:53 Mostly Cloudy 17 -8.3 13 -10.6 84 84 SW 8 13 29.86 1011 10 16 0.00 0.00
2:53 am 02:53 Mostly Clear 15 -9.4 11 -11.7 84 84 SW 10 17 29.85 1011 10 16 0.00 0.00
3:53 am 03:53 Clear 14 -10 11 -11.7 88 88 SW 9 15 29.85 1011 10 16 0.00 0.00
4:53 am 04:53 Clear 13 -10.6 10 -12.2 88 88 WSW 8 13 29.86 1011 10 16 0.00 0.00
5:53 am 05:53 Clear 10 -12.2 7 -13.9 87 87 SW 8 13 29.86 1011 10 16 0.00 0.00
6:53 am 06:53 Clear 10 -12.2 7 -13.9 87 87 WSW 7 11 29.87 1011 10 16 0.00 0.00
7:53 am 07:53 Sunny 12 -11.1 9 -12.8 87 87 SW 5 7 29.88 1012 10 16 0.00 0.00
8:53 am 08:53 Mostly Sunny 14 -10 10 -12.2 84 84 SW 7 11 29.88 1012 10 16 0.00 0.00
9:53 am 09:53 Mostly Sunny 17 -8.3 11 -11.7 77 77 WNW 3 6 29.87 1011 10 16 0.00 0.00
10:53 am 10:53 Sunny 19 -7.2 12 -11.1 74 74 W 5 7 29.86 1011 10 16 0.00 0.00
11:53 am 11:53 Mostly Sunny 21 -6.1 14 -10 74 74 SW 5 7 29.84 1011 10 16 0.00 0.00
12:53 pm 12:53 Sunny 25 -3.9 15 -9.4 66 66 W 6 9 29.80 1009 10 16 0.00 0.00
1:53 pm 13:53 Mostly Sunny 28 -2.2 16 -8.9 60 60 W 3 6 29.78 1008 10 16 0.00 0.00
2:53 pm 14:53 Mostly Cloudy 28 -2.2 15 -9.4 58 58 W 6 9 29.79 1009 10 16 0.00 0.00
3:53 pm 15:53 Cloudy 28 -2.2 16 -8.9 60 60 Calm 29.79 1009 10 16 0.00 0.00
4:40 pm 16:40 Cloudy 28 -2.2 15 -9.4 58 58 WNW 6 9 29.82 1010 10 16 0.00 0.00
4:53 pm 16:53 Cloudy 27 -2.8 15 -9.4 61 61 WNW 3 6 29.81 1009 10 16 0.00 0.00
5:41 pm 17:41 Mostly Clear 25 -3.9 16 -8.9 69 69 NE 7 11 29.85 1011 10 16 0.00 0.00
5:53 pm 17:53 Mostly Clear 24 -4.4 16 -8.9 71 71 NNE 6 9 29.83 1010 10 16 0.00 0.00
6:53 pm 18:53 Mostly Cloudy 21 -6.1 15 -9.4 78 78 NNE 3 6 29.85 1011 10 16 0.00 0.00
7:08 pm 19:08 Cloudy 21 -6.1 14 -10 74 74 NW 5 7 29.89 1012 10 16 0.00 0.00
7:33 pm 19:33 Partly Cloudy 20 -6.7 14 -10 78 78 NW 3 6 29.89 1012 10 16 0.00 0.00
7:53 pm 19:53 Clear 19 -7.2 13 -10.6 77 77 NW 7 11 29.85 1011 10 16 0.00 0.00
8:53 pm 20:53 Clear 15 -9.4 11 -11.7 84 84 WNW 7 11 29.86 1011 10 16 0.00 0.00
9:53 pm 21:53 Cloudy 15 -9.4 10 -12.2 80 80 WNW 5 7 29.88 1012 10 16 0.00 0.00
10:53 pm 22:53 Cloudy 15 -9.4 10 -12.2 80 80 WNW 6 9 29.89 1012 10 16 0.00 0.00
11:53 pm 23:53 Mostly Clear 11 -11.7 7 -13.9 84 84 WSW 5 7 29.91 1013 9 14 0.00 0.00

Powered by AerisWeather